, AK

(GMT )
Portage Glacier

Weather History for PATO - October, 2013

Change the Weather History Date:

Thursday, October 3, 2013

  Actual Average Record
Temperature  
Mean Temperature 46 °F -  
Max Temperature 48 °F - - ()
Min Temperature 42 °F - - ()
Degree Days  
Heating Degree Days 20    
Moisture  
Dew Point 41 °F    
Average Humidity 87    
Maximum Humidity 100    
Minimum Humidity 74    
Precipitation  
Precipitation 2.32 in - - ()
Sea Level Pressure  
Sea Level Pressure 29.58 in    
Wind  
Wind Speed 12 mph (ESE)    
Max Wind Speed 18 mph    
Max Gust Speed 34 mph    
Visibility 4 miles    
Events Rain    
Averages and records for this station are not official NWS values.
T = Trace of Precipitation, MM = Missing Value Source: NWS Daily Summary

Daily Weather History Graph

Daily Weather History Graph

Search for Another Location

Airport or City:

Trip Planner

Search our weather history database for the weather conditions in past years. The results will help you decide how hot, cold, wet, or windy it might be!

Date:

Astronomy

Oct. 03, 2013 Rise Set
Actual Time 8:07 AM AKDT 7:19 PM AKDT
Civil Twilight 7:25 AM AKDT 8:01 PM AKDT
Nautical Twilight 6:35 AM AKDT 8:51 PM AKDT
Astronomical Twilight 5:43 AM AKDT 9:43 PM AKDT
Moon 6:40 AM AKDT (10/3) 6:36 PM AKDT (10/3)
Length of Visible Light 12h 36m
Length of Day
11h 11m
Waning Crescent, 2% of the Moon is Illuminated
Oct 3
Waning Crescent
Oct 4
New
Oct 11
First Quarter
Oct 18
Full
Oct 26
Last Quarter

Hourly Weather History & Observations

Time (AKDT) Temp. Windchill Dew Point Humidity Pressure Visibility Wind Dir Wind Speed Gust Speed Precip Events Conditions
12:53 AM 46.9 °F - 42.1 °F 83% 29.80 in 6.0 mi ESE 8.1 mph 33.4 mph 0.08 in Rain Light Rain
1:28 AM 46.9 °F - 41.0 °F 80% 29.79 in 5.0 mi East 17.3 mph 33.4 mph 0.09 in Rain Light Rain
1:53 AM 45.0 °F 38.9 °F 42.1 °F 90% 29.79 in 3.0 mi ESE 12.7 mph 29.9 mph 0.15 in Rain Heavy Rain
2:46 AM 45.0 °F 38.2 °F 41.0 °F 86% 29.78 in 3.0 mi ESE 15.0 mph 23.0 mph 0.07 in Rain Rain
2:53 AM 45.0 °F 38.9 °F 41.0 °F 86% 29.78 in 4.0 mi East 12.7 mph 26.5 mph 0.08 in Rain Rain
3:53 AM 44.1 °F 37.4 °F 42.1 °F 93% 29.75 in 4.0 mi SE 13.8 mph 24.2 mph 0.13 in Rain Rain
4:17 AM 44.1 °F 37.7 °F 42.1 °F 93% 29.73 in 3.0 mi SE 12.7 mph 25.3 mph 0.05 in Rain Light Rain
4:53 AM 46.9 °F - 41.0 °F 80% 29.70 in 10.0 mi SE 18.4 mph 34.5 mph 0.09 in Rain Light Rain
5:53 AM 48.0 °F - 41.0 °F 77% 29.68 in 10.0 mi East 12.7 mph 27.6 mph 0.04 in Rain Light Rain
6:00 AM 46.9 °F - 41.0 °F 80% 29.67 in 6.0 mi SE 15.0 mph 24.2 mph 0.02 in Rain Rain
6:53 AM 46.0 °F 39.9 °F 41.0 °F 83% 29.66 in 4.0 mi ESE 13.8 mph 29.9 mph 0.14 in Rain Rain
7:53 AM 48.0 °F - 39.9 °F 74% 29.64 in 10.0 mi ESE 9.2 mph 29.9 mph 0.04 in Rain Light Rain
8:53 AM 46.0 °F 39.0 °F 41.0 °F 83% 29.62 in 4.0 mi East 17.3 mph 27.6 mph 0.07 in Rain Rain
9:28 AM 46.0 °F 40.2 °F 41.0 °F 83% 29.61 in 2.5 mi ESE 12.7 mph 29.9 mph 0.09 in Rain Rain
9:53 AM 46.0 °F 39.6 °F 39.9 °F 79% 29.61 in 3.0 mi ESE 15.0 mph 27.6 mph 0.14 in Rain Rain
9:56 AM 46.0 °F 41.9 °F 39.9 °F 79% 29.59 in 2.5 mi ESE 8.1 mph 27.6 mph 0.01 in Rain Rain
10:03 AM 45.0 °F 40.1 °F 41.0 °F 86% 29.59 in 2.5 mi ESE 9.2 mph 21.9 mph 0.02 in Rain Rain
10:06 AM 45.0 °F 41.2 °F 41.0 °F 86% 29.59 in 3.0 mi Variable 6.9 mph 21.9 mph 0.03 in Rain Rain
10:53 AM 45.0 °F 39.7 °F 42.1 °F 90% 29.57 in 4.0 mi SE 10.4 mph 23.0 mph 0.11 in Rain Rain
11:53 AM 45.0 °F 38.9 °F 41.0 °F 86% 29.56 in 3.0 mi SE 12.7 mph 24.2 mph 0.14 in Rain Rain
12:15 PM 45.0 °F 39.3 °F 41.0 °F 86% 29.55 in 2.0 mi ESE 11.5 mph 28.8 mph 0.07 in Rain Heavy Rain
12:42 PM 45.0 °F 39.3 °F 41.0 °F 86% 29.54 in 3.0 mi ESE 11.5 mph 20.7 mph 0.16 in Rain Heavy Rain
12:53 PM 45.0 °F 37.9 °F 39.9 °F 82% 29.53 in 3.0 mi ESE 16.1 mph 29.9 mph 0.21 in Rain Heavy Rain
1:27 PM 45.0 °F 38.5 °F 41.0 °F 86% 29.52 in 2.5 mi SE 13.8 mph 27.6 mph 0.07 in Rain Rain
1:36 PM 45.0 °F 38.5 °F 41.0 °F 86% 29.52 in 3.0 mi ESE 13.8 mph 26.5 mph 0.09 in Rain Rain
1:53 PM 45.0 °F 38.9 °F 41.0 °F 86% 29.53 in 3.0 mi ESE 12.7 mph 28.8 mph 0.12 in Rain Rain
2:08 PM 45.0 °F 39.7 °F 39.9 °F 82% 29.52 in 3.0 mi ESE 10.4 mph 21.9 mph 0.04 in Rain Rain
2:18 PM 45.0 °F 40.6 °F 39.9 °F 82% 29.52 in 2.5 mi ESE 8.1 mph 25.3 mph 0.07 in Rain Rain
2:26 PM 45.0 °F 40.1 °F 39.9 °F 82% 29.51 in 3.0 mi ESE 9.2 mph 21.9 mph 0.08 in Rain Rain
2:46 PM 45.0 °F 37.9 °F 39.9 °F 82% 29.51 in 3.0 mi SE 16.1 mph 27.6 mph 0.13 in Rain Rain
2:53 PM 45.0 °F 37.6 °F 41.0 °F 86% 29.52 in 2.5 mi ESE 17.3 mph 28.8 mph 0.16 in Rain Rain
3:02 PM 45.0 °F 38.2 °F 41.0 °F 86% 29.51 in 2.5 mi SE 15.0 mph 29.9 mph 0.02 in Rain Rain
3:46 PM 45.0 °F 39.3 °F 41.0 °F 86% 29.50 in 3.0 mi ESE 11.5 mph 23.0 mph 0.15 in Rain Rain
3:53 PM 45.0 °F 37.6 °F 41.0 °F 86% 29.50 in 3.0 mi East 17.3 mph 26.5 mph 0.17 in Rain Rain
4:53 PM 45.0 °F 38.9 °F 43.0 °F 93% 29.49 in 3.0 mi SSE 12.7 mph 26.5 mph 0.12 in Rain Rain
5:53 PM 45.0 °F 39.3 °F 42.1 °F 90% 29.48 in 4.0 mi SSE 11.5 mph 28.8 mph 0.10 in Rain Light Rain
6:53 PM 44.1 °F 40.1 °F 42.1 °F 93% 29.49 in 4.0 mi SE 6.9 mph - 0.06 in Rain Rain
7:03 PM 44.1 °F - 43.0 °F 96% 29.49 in 2.5 mi North - - 0.01 in Rain Light Rain
7:11 PM 44.1 °F 41.5 °F 43.0 °F 96% 29.49 in 4.0 mi Variable 4.6 mph - 0.02 in Rain Light Rain
8:53 PM 43.0 °F - 43.0 °F 100% 29.49 in 6.0 mi Calm Calm - 0.07 in Rain Light Rain
9:45 PM 43.0 °F - 43.0 °F 100% 29.50 in 5.0 mi Calm Calm - 0.06 in Rain Rain
9:53 PM 43.0 °F 41.3 °F 43.0 °F 100% 29.50 in 7.0 mi WNW 3.5 mph - 0.06 in Rain Light Rain
10:28 PM 43.0 °F - 43.0 °F 100% 29.50 in 8.0 mi Calm Calm - 0.00 in Rain Light Rain
10:53 PM 43.0 °F - 43.0 °F 100% 29.51 in 7.0 mi Calm Calm - 0.01 in Rain Light Rain
11:53 PM 42.1 °F - 42.1 °F 100% 29.52 in 10.0 mi Calm Calm - 0.03 in   Overcast